Regional Weather Roundup
Issued by NWS

Home | Current Version | Previous Version | Text Only | Print | Product List | Glossary On
Versions: 1 2 3 4 5 6 7 8 9 10 11 12 13 14 15 16 17 18 19 20 21 22 23 24 25 26 27 28 29 30 31 32 33 34 35 36 37 38 39 40 41 42 43 44 45 46 47 48 49 50
000
ASUS45 KTFX 291119
RWRMT
MONTANA HOURLY WEATHER ROUNDUP
NATIONAL WEATHER SERVICE GREAT FALLS MT
419 AM MST MON DEC 29 2014

NOTE: "FAIR" INDICATES FEW OR NO CLOUDS BELOW 12000 FEET WITH NO
SIGNIFICANT WEATHER AND/OR OBSTRUCTIONS TO VISIBILITY.

* THESE STATIONS ARE NOT UNDER NWS QUALITY CONTROL. THEY DO NOT
   REPORT WEATHER SUCH AS PRECIPITATION OR FOG.

MTZ001>007-043-291200-
WEST OF THE DIVIDE
CITY           SKY/WX    TMP DP  RH WIND       PRES   REMARKS
KALISPELL      CLOUDY    16   3  56 NE22G36   30.41R WCI  -2
MISSOULA       CLOUDY    14   3  61 SE16      30.36R WCI  -2
BUTTE          LGT SNOW   3   0  87 CALM      30.19R
MULLAN PASS    LGT SNOW   7   1  76 VRB6      30.05R VSB 1    WCI  -4
* ESSEX        N/A        9  -3  58 SE6        N/A   WCI  -1
* HAMILTON APT MOCLDY    16   3  56 NW17      30.25R
* LINCOLN      N/A        4  -4  69 NE17G28    N/A   WCI -15
* LOOKOUT PASS N/A       12   8  84 SW2G9      N/A
* POLSON       N/A       13   5  70 NE2G7      N/A
* RONAN APT    MOCLDY    18   1  47 E16G26     N/A   WCI   3
* SEELEY LAKE  N/A        4   0  83 N/A        N/A
* THOMP F APT  CLOUDY     8   2  76 NW7G16     N/A   WCI  -3
* YAAK HILL    N/A       19   7  59 SE3        N/A
$$

MTZ008-052>055-291200-
SOUTHWEST MONTANA
CITY           SKY/WX    TMP DP  RH WIND       PRES   REMARKS
BOZEMAN        FOG        9   3  76 W5        30.26R
DILLON         LGT SNOW   7   3  83 NE13      30.16R WCI  -9
* W YELLOWSTON PTCLDY     3  -1  83 N/A        N/A
* THREE FORKS  PTCLDY    10   9  96 N7         N/A   WCI  -1
* BOULDER HILL N/A        0  -5  79 N17G22     N/A   WCI -21
* MONIDA PASS  N/A        3   0  87 VRB4       N/A
* RAYNOLDS PAS N/A        2 -36  14 N9         N/A   WCI -13
* WHITEHALL    N/A        9   0  66 NE10G21    N/A   WCI  -5
* WISE RIVER   N/A        7  -3  63 E13G19     N/A   WCI  -9
$$

MTZ009>010-012-014-046-048-049-054-291200-
EAST SLOPES AND CENTRAL MONTANA
CITY           SKY/WX    TMP DP  RH WIND       PRES   REMARKS
CUT BANK       LGT SNOW   1  -2  87 N20       30.53R VSB 1 3/4 WCI -21
GREAT FALLS    LGT SNOW   1  -2  87 N9        30.50R VSB 3    WCI -14
HELENA         HAZE       7   0  73 NW10      30.41R WCI  -7
MALMSTROM AFB  LGT SNOW   3   1  91 N8        30.53R WCI -10
* CONRAD       CLEAR      1  -2  87 NW9        N/A   WCI -14
* DEARBORN     N/A        6   0  76 N/A        N/A
* EAST GLACIER N/A       -1  -6  79 E12G17     N/A   WCI -19
* MONARCH      N/A       -3  -8  79 W3         N/A
* PENDROY      N/A      N/A N/A N/A VRB17G23    N/A
* ROGERS PASS  N/A       -2  -7  79 N/A        N/A
* SWEET GRASS  N/A        1  -3  83 N/A        N/A
* WHITE SULPH  N/A        2  -4  76 NW9        N/A   WCI -13
$$

MTZ011-013-016-021-035-040-045-047-050-051-291200-
NORTH CENTRAL MONTANA
CITY           SKY/WX    TMP DP  RH WIND       PRES   REMARKS
HAVRE          CLOUDY     7   0  73 NE12      30.60R WCI  -9
LEWISTOWN      LGT SNOW   3   0  87 W7        30.41R VSB 2    WCI  -9
* N BAR RANCH  CLOUDY     5  -2  72 NW10      30.38R WCI -10
* CHINOOK      MOCLDY     7   0  73 N3        30.63R
* CHESTER      N/A        6  -2  69 NE7G12     N/A   WCI  -6
* DENTON       N/A        6   2  83 NW11G16    N/A   WCI  -9
* GEYSER       N/A        2  -2  83 W15        N/A   WCI -17
* JUDITH GAP   N/A        2   0  91 N19        N/A   WCI -19
* LOMA         N/A        7   2  80 N17        N/A   WCI -11
$$

MTZ017>020-022>027-061-062-291200-
NORTHEAST MONTANA
CITY           SKY/WX    TMP DP  RH WIND       PRES   REMARKS
GLASGOW        CLOUDY    -2  -9  72 N9        30.61R WCI -18
GLENDIVE       CLOUDY     0  -6  75 N16       30.53R WCI -20
JORDAN         CLOUDY     5   0  80 NE6       30.55R WCI  -6
SIDNEY         CLEAR     -9 -20  58 NW13      30.62R WCI -30
WOLF POINT     MOCLDY    -6 -13  71 N3        30.65R
* BEAVER HILL  N/A       -4  -8  83 N9G17      N/A   WCI -20
* CIRCLE       N/A        0  -4  83 N4G9       N/A
* LINDSAY DVD  N/A       -5  -8  87 NW11       N/A   WCI -23
* NAVAJO       N/A      -12 -17  78 NW12       N/A   WCI -33
* PLENTYWOOD A PTCLDY   -15 -18  86 NW10      30.60R WCI -35
* POPLAR APT   PTCLDY    -8 -13  78 N/A       30.64R
* SACO         N/A       -4 -10  75 NW6        N/A   WCI -17
$$

MTZ028>042-056>058-291200-
SOUTHCENTRAL AND SOUTHEAST MONTANA
CITY           SKY/WX    TMP DP  RH WIND       PRES   REMARKS
BAKER          CLOUDY     3   0  87 NE7       30.44R WCI  -9
BILLINGS       LGT SNOW   9   3  76 NE13      30.40R WCI  -7
LIVINGSTON     LGT SNOW   9   3  76 E21       30.27R WCI -11
MILES CITY     CLOUDY     5  -2  72 NE14      30.48R WCI -12
* BIG TIMBER A MOCLDY     9   5  84 NE10      30.34R WCI  -5
* FORSYTH APT  PTCLDY     3   0  87 N12       30.49R VSB 2 1/2 WCI -14
* LAUREL APT   CLOUDY     9   0  66 N6         N/A   WCI  -1
* ROUNDUP APT  PTCLDY     7  -2  66 N9         N/A   WCI  -6
* ALZADA       N/A        8   4  84 NE2        N/A
* HYSHAM       N/A        2  -2  83 NE6        N/A   WCI  -9
* REED POINT   N/A       11   7  84 NE4G9      N/A
* ROSCOE HILL  N/A        6   1  80 N4         N/A
$$

REGIONAL REPORTS...DAKOTAS
CITY           SKY/WX    TMP DP  RH WIND       PRES   REMARKS
WILLISTON      PTCLDY    -9 -17  67 N6        30.61R WCI -23
DICKINSON      CLOUDY     0  -6  75 N12       30.45R WCI -17
BEACH          CLOUDY     0  -4  83 N12       30.48R WCI -17
CROSBY         CLEAR    -13 -18  78 NW12      30.63R WCI -34
WATFORD CITY   CLEAR    -13 -18  78 W3        30.56R
BISMARCK       PTCLDY    -6 -11  78 N10       30.57R WCI -23
GRAND FORKS    PTCLDY   -11 -18  70 N8        30.63R WCI -28
FARGO          PTCLDY    -6 -11  78 N14       30.59R WCI -26
BUFFALO SD     MOCLDY     3   0  87 NE16      30.30R WCI -16
RAPID CITY     LGT SNOW   9   3  76 N13       30.32R VSB 3    WCI  -7
$$

REGIONAL REPORTS...WYOMING/IDAHO/WASHINGTON
CITY           SKY/WX    TMP DP  RH WIND       PRES   REMARKS
GILLETTE       LGT SNOW   9   3  76 NW18      30.22R VSB 3    WCI  -9
SHERIDAN       LGT SNOW   9   3  76 NW16      30.32R VSB 1    WCI  -8
CODY           CLOUDY     9   7  91 N15       30.20R WCI  -8
YELLOWSTONE LA MOCLDY     0  -6  75 CALM      29.97S
SALMON         CLOUDY    21   7  55 E14       30.12R WCI   8
MULLAN PASS    LGT SNOW   7   1  76 VRB6      30.05S VSB 1    WCI  -4
SAND POINT     CLOUDY    21  12  68 N25G36    30.37R WCI   4
SPOKANE        LGT SNOW  25  18  75 NE16G26   30.21R WCI  12
$$

REGIONAL REPORTS...ALBERTA
CITY           SKY/WX    TMP DP  RH WIND       PRES   REMARKS
CALGARY        LGT SNOW   3  -4  72 N15G25    30.64R WCI -16
LETHBRIDGE     LGT SNOW   7   3  83 N10       30.65R VSB 2    WCI  -7
MEDICINE HAT   CLOUDY     1  -2  87 N9        30.70R WCI -14
EDMONTON       LGT SNOW   0  -8  68 NE9       30.82R WCI -15
WATERTON GATE  N/A        3   0  87 N10        N/A   WCI -12
CARDSTON       N/A        3   1  91 NW5        N/A   WCI  -7
MILK RIVER     N/A        3   0  87 N14        N/A   WCI -15
$$

REGIONAL REPORTS...SASKATCHEWAN
CITY           SKY/WX    TMP DP  RH WIND       PRES   REMARKS
SWIFT CURRENT  PTCLDY   -17 -20  86 W8        30.59S WCI -35
REGINA         N/A      -22 -27  77 NW10      30.66R WCI -43
VAL MARIE      N/A       -8 -11  86 N7         N/A   WCI -23
ASSINIBOIA     N/A      -18 -22  81 W6         N/A   WCI -33

$$




USA.gov is the U.S. government's official web portal to all federal, state and local government web resources and services.